Location: Casper
(42.8670°N, 106.3130°W)
Time: 18:47:05
(UTC-07:00)

Daily predictions for brighter satellites

Satellite Brightness Start Highest point End
(mag) Time Altitude Azimuth Time Altitude Azimuth Time Altitude Azimuth
Cosmos 841 Rocket 4.0 16:58:19 10° N 17:03:12 37° ENE 17:08:03 10° SE
COSMOS 2406 3.6 17:02:32 10° NNW 17:08:15 72° WSW 17:13:55 10° SSE
Cosmos 972 Rocket 3.8 17:05:52 10° NNW 17:10:49 83° ENE 17:15:45 10° SSE
Cosmos 1633 4.1 17:09:01 10° NNE 17:11:33 17° ENE 17:14:04 10° ESE
Cosmos 1437 2.7 17:09:16 10° S 17:12:23 62° E 17:15:32 10° NNE
Cosmos 1486 Rocket 4.5 17:09:30 10° S 17:14:20 40° ESE 17:19:13 10° NE
Aureole 3 4.3 17:11:14 10° NNW 17:15:55 78° W 17:21:55 10° S
IDEFIX/ARIANE 42P 4.2 17:13:56 10° SSW 17:18:50 40° W 17:23:45 10° NNW
CSL-04 Debris 4.1 17:13:48 10° SSE 17:19:11 72° ENE 17:24:35 10° N
Meteor 1-14 Rocket 4.3 17:15:44 10° N 17:21:19 57° ENE 17:26:47 10° SSE
Cosmos 1908 Rocket 3.9 17:19:51 10° N 17:24:01 43° ENE 17:28:07 10° SSE
Cosmos 1733 Rocket 3.3 17:20:50 10° NNW 17:25:17 76° W 17:29:43 10° S
Cosmos 1833 Rocket 3.3 17:21:31 10° N 17:26:36 34° NE 17:31:40 10° ESE
Cosmos 972 4.4 17:24:48 10° NNW 17:29:49 63° ENE 17:34:38 10° SSE
Cosmos 1844 4.3 17:25:36 10° SW 17:31:17 59° WNW 17:37:03 10° NNE
ERBS 3.5 17:29:24 10° WNW 17:32:40 45° SW 17:35:56 10° SSE
IRS-1A Rocket 4.3 17:28:03 10° SSE 17:33:44 61° ENE 17:39:22 10° N
ALOS 3.3 17:30:17 10° ESE 17:34:01 24° ENE 17:37:47 10° NNE
SPOT 3 Rocket 4.2 17:31:01 10° SE 17:35:36 32° ENE 17:40:11 10° N
Cosmos 2278 Rocket 2.2 17:30:12 10° SSW 17:35:51 77° ESE 17:41:33 10° NNE
Cosmos 2242 Rocket 4.5 17:31:39 10° SSW 17:36:07 54° W 17:40:34 10° N
Cosmos 2233 Rocket 4.0 17:31:11 10° S 17:37:26 82° E 17:43:40 10° N
Cosmos 1862 Rocket 4.0 17:33:16 10° SSW 17:37:40 67° W 17:42:08 10° N
Meteor 1-26 Rocket 4.2 17:33:21 10° S 17:38:57 88° W 17:44:30 10° N
AQUARIUS 4.3 17:36:04 10° SSE 17:40:34 82° WSW 17:45:05 10° NNW
CENTAUR R/B 3.4 17:34:42 10° WSW 17:40:37 48° NW 17:47:25 10° NNE
CORIOLIS 4.2 17:35:37 10° SSE 17:41:03 85° ENE 17:46:32 10° NNW
Sich 1 Rocket 3.6 17:36:50 10° N 17:41:11 55° E 17:45:33 10° SSE
SMAP 3.2 17:37:27 10° S 17:42:05 78° WSW 17:46:46 10° NNW
Meteor 1-28 Rocket 3.0 17:39:38 10° NNE 17:43:22 76° ESE 17:47:04 10° S
CZ-4 R/B 1.2 17:40:58 10° SSE 17:44:50 86° ENE 17:48:41 10° NNW
CZ-4 R/B 4.5 17:42:09 10° SSE 17:46:14 57° ENE 17:50:19 10° N
COSMOS 2455 3.4 17:40:21 10° SW 17:46:16 60° NW 17:52:15 10° NNE
Cosmos 1606 2.8 17:46:10 10° S 17:49:49 49° E 17:53:29 10° NNE
Okean 1-7 3.3 17:48:06 10° SSE 17:52:16 44° E 17:56:28 10° NNE
Cosmos 1484 Rocket 3.7 17:48:32 10° S 17:52:17 52° W 17:56:09 10° NNW
Landsat 4 3.6 17:51:11 10° NNE 17:54:59 74° ESE 17:58:47 10° S
NOAA 12 4.4 17:51:24 10° SE 17:56:23 43° ENE 18:01:23 10° N
MOS 1 4.3 17:50:55 10° SSE 17:56:31 62° ENE 18:02:09 10° N
EO 1 Del DPAF 3.5 17:54:40 14° NNE 17:57:44 47° E 18:01:25 10° S
CZ-4C R/B 3.3 17:58:09 10° NNW 18:04:41 40° NE 18:09:18 21° E
Cosmos 1782 Rocket 3.4 18:04:15 10° N 18:08:37 77° E 18:12:58 10° SSE
USA 116 4.5 18:09:07 10° N 18:13:34 57° WNW 18:17:27 10° SSW
COSMO-SKYMED 1 2.4 18:09:49 10° NNE 18:14:11 79° ESE 18:18:31 10° S
Meteor 2-6 Rocket 4.1 18:08:51 10° S 18:14:12 66° E 18:19:45 10° NNE
Cosmos 1602 3.9 18:10:37 10° N 18:14:19 45° ENE 18:18:01 10° SSE
Cosmos 2082 Rocket 2.1 18:09:20 10° NNW 18:15:04 76° ENE 18:20:43 10° SSE
YAOGAN 1 3.0 18:10:50 10° S 18:15:07 63° W 18:19:25 10° NNW
Cosmos 1782 2.9 18:11:29 10° S 18:15:31 80° W 18:19:32 10° N
METEOR-M 4.2 18:12:19 10° S 18:17:39 80° WSW 18:23:01 10° NNW
Cosmos 1891 Rocket 4.4 18:13:17 10° S 18:19:22 64° E 18:25:22 10° NNE
SL-27 R/B 3.5 18:16:49 10° NNW 18:20:01 44° WSW 18:23:13 10° S
ERS-2 2.6 18:17:12 10° S 18:20:50 61° WSW 18:24:29 10° NNW
Cosmos 405 Rocket 2.6 18:19:10 10° S 18:22:54 57° E 18:23:02 57° E
Cosmos 44 Rocket 3.2 18:27:27 10° NNW 18:32:19 68° NE 18:33:54 42° ESE
Cosmos 2221 Rocket 3.7 18:28:15 10° SSW 18:32:39 73° W 18:36:52 11° N
FengYun 1-2 T 4.3 18:30:01 20° SE 18:33:39 49° ENE 18:39:00 10° N
Cosmos 1503 Rocket 4.1 18:29:39 10° SSW 18:34:56 75° WNW 18:38:43 19° NNE
Nadezhda 4 Rocket 3.9 18:29:29 10° N 18:35:33 58° E 18:41:32 10° SSE
Cosmos 540 Rocket 3.8 18:30:41 10° NNW 18:35:50 68° WSW 18:40:56 10° S
BREEZE-M R/B 3.7 18:33:47 10° WNW 18:36:37 43° SSW 18:38:43 25° SSE
Lacrosse 5 3.8 18:34:51 10° NW 18:38:00 16° N 18:38:55 16° N
Cosmos 968 Rocket 3.7 18:33:50 10° S 18:38:30 48° ESE 18:38:30 48° ESE
Cosmos 2034 Rocket 3.9 18:34:18 10° S 18:40:40 81° E 18:47:03 10° N
Cosmos 292 Rocket 3.6 18:37:20 10° NNW 18:42:07 89° ENE 18:45:13 22° SSE
Timation 2 Rocket 4.1 18:36:23 10° NNW 18:43:04 57° ENE 18:45:04 42° ESE
Meteor 1-27 Rocket 3.7 18:38:15 10° S 18:44:08 76° E 18:49:09 15° NNE
USA 234 3.1 18:42:56 39° NE 18:45:41 80° SE 18:52:13 10° SW
DMSP B5D1-3 4.5 18:43:31 18° NNE 18:47:26 85° WNW 18:52:35 10° SSW
Okean 2 Rocket 3.7 18:46:23 10° NNW 18:50:51 58° W 18:55:17 10° S
Cosmos 1092 Rocket 4.0 18:46:37 10° N 18:52:09 53° ENE 18:52:09 53° ENE
Meteor 2-20 4.4 18:46:57 10° N 18:53:03 84° W 18:59:07 10° S
FENGYUN 3A 4.2 18:52:42 10° S 18:58:02 58° W 19:03:23 10° NNW
Cosmos 44 3.6 18:55:36 10° NW 19:00:15 63° WSW 19:01:26 47° S
Cosmos 1833 Rocket 4.0 19:05:24 10° NW 19:10:33 38° WSW 19:15:40 10° S
ALOS 3.7 19:06:57 10° SSW 19:11:15 36° W 19:15:36 10° NNW
Cosmos 2278 Rocket 4.5 19:16:36 10° W 19:20:35 19° NW 19:24:36 10° N
USA 229 DEB 4.2 19:30:31 10° SSW 19:35:10 47° SSW 19:35:10 47° SSW
USA 229 4.2 19:30:38 10° SSW 19:35:14 46° SSW 19:35:14 46° SSW
CZ-4C R/B 3.3 19:46:31 10° NW 19:53:38 59° WSW 19:54:35 55° SSW
